IZ1UKX-13 Weather Reports


time (UTC)temp
F
wind
direction
speed
knots
gust
knots
rain 1hr
in
rain 24hr
in
rain mn
in
humidity
%
barometer
mb
20260507224629 46 203 0.0 0.0 0.00 0.00 0.00 95 1025.8
20260507224129 46 203 0.0 0.0 0.00 0.00 0.00 95 1025.8
20260507223628 46 203 0.0 0.0 0.00 0.00 0.00 95 1025.4
20260507223129 46 203 0.0 0.0 0.00 0.00 0.00 95 1025.4
20260507222628 46 203 0.0 0.0 0.00 0.00 0.00 95 1025.4
20260507222129 46 203 0.0 0.0 0.00 0.00 0.00 95 1025.4
20260507221628 47 203 0.0 0.0 0.00 0.00 0.00 95 1025.4
20260507221129 47 203 0.0 0.0 0.00 0.00 0.00 95 1025.4
20260507220628 47 203 0.0 0.0 0.00 0.00 0.00 95 1025.4
20260507220129 47 113 0.0 0.0 0.00 0.00 0.00 95 1025.4
20260507215628 47 113 0.0 0.0 0.00 0.00 0.00 95 1025.4
20260507215129 47 113 0.0 0.0 0.00 0.00 0.00 95 1025.4
20260507214629 47 113 0.0 0.0 0.00 0.00 0.00 95 1025.4
20260507214129 47 113 0.0 0.0 0.00 0.00 0.00 95 1025.4
20260507213629 47 113 0.0 0.0 0.00 0.00 0.00 95 1025.4
20260507213128 47 113 0.0 0.0 0.00 0.00 0.00 95 1025.4
20260507212628 48 113 0.0 0.0 0.00 0.00 0.00 95 1025.4
20260507212129 48 113 0.0 0.0 0.00 0.00 0.00 95 1025.4
20260507211629 48 113 0.0 0.0 0.00 0.00 0.00 95 1025.4
20260507211128 48 113 0.0 0.0 0.00 0.00 0.00 95 1025.4
20260507210628 48 113 0.0 0.0 0.00 0.00 0.00 95 1025.4
20260507210128 48 113 0.0 0.0 0.00 0.00 0.00 94 1025.4
20260507205628 48 113 0.0 0.0 0.00 0.00 0.00 94 1025.4
20260507205129 49 113 0.0 0.0 0.00 0.00 0.00 94 1025.4
20260507204628 49 113 0.0 0.0 0.00 0.00 0.00 95 1025.4
20260507204129 49 113 0.0 1.7 0.00 0.00 0.00 95 1025.4
20260507203628 49 113 0.0 0.0 0.00 0.00 0.00 95 1025.4
20260507203128 49 113 0.0 0.0 0.00 0.00 0.00 94 1025.4
20260507202628 49 113 0.0 0.0 0.00 0.00 0.00 94 1024.9
20260507202128 50 113 0.0 0.0 0.00 0.00 0.00 94 1024.9
20260507201628 50 113 0.0 0.0 0.00 0.00 0.00 94 1024.9
20260507201129 50 113 0.0 0.0 0.00 0.00 0.00 94 1024.9
20260507200629 50 113 0.0 0.0 0.00 0.00 0.00 94 1024.9
20260507200129 50 113 0.0 0.0 0.00 0.00 0.00 94 1024.9
20260507195628 50 113 0.0 0.0 0.00 0.00 0.00 94 1024.9
20260507195128 51 113 0.0 0.0 0.00 0.00 0.00 94 1024.9
20260507194628 51 113 0.0 0.0 0.00 0.00 0.00 94 1024.9
20260507194128 51 113 0.0 0.0 0.00 0.00 0.00 94 1024.9
20260507193628 51 113 0.0 0.0 0.00 0.00 0.00 94 1024.9
20260507193128 51 113 0.0 0.0 0.00 0.00 0.00 94 1024.9
20260507192629 51 113 0.0 0.0 0.00 0.00 0.00 94 1024.9
20260507192128 51 113 0.0 0.0 0.00 0.00 0.00 94 1024.9
20260507191629 52 113 0.0 0.0 0.00 0.00 0.00 93 1024.9
20260507191128 52 113 0.0 0.0 0.00 0.00 0.00 94 1024.9
20260507190629 52 113 0.0 0.0 0.00 0.00 0.00 93 1024.9
20260507190129 53 113 0.0 0.0 0.00 0.00 0.00 93 1024.9
20260507185629 53 113 0.0 0.0 0.00 0.00 0.00 93 1024.5
20260507185128 53 113 0.0 0.0 0.00 0.00 0.00 93 1024.5
20260507184629 53 113 0.0 0.0 0.00 0.00 0.00 93 1024.5
20260507184129 53 113 0.0 0.0 0.00 0.00 0.00 93 1024.5
20260507183629 54 113 0.0 0.0 0.00 0.00 0.00 93 1024.5
20260507183129 54 113 0.0 0.0 0.00 0.00 0.00 92 1024.5
20260507182628 54 113 0.0 1.7 0.00 0.00 0.00 92 1024.5
20260507182129 54 113 0.0 0.0 0.00 0.00 0.00 91 1024.5
20260507181629 54 113 0.0 0.0 0.00 0.00 0.00 91 1024.5
20260507181129 55 113 0.0 0.0 0.00 0.00 0.00 90 1024.5
20260507180629 55 113 0.0 0.0 0.00 0.00 0.00 90 1024.5
20260507180129 55 113 0.0 0.0 0.00 0.00 0.00 90 1024.5
20260507175629 56 113 0.0 0.0 0.00 0.00 0.00 90 1024.5
20260507175128 56 113 0.0 0.0 0.00 0.00 0.00 89 1024.5
20260507174629 56 113 0.0 0.0 0.00 0.00 0.00 89 1024.0
20260507174129 56 113 0.0 0.0 0.00 0.00 0.00 89 1024.0
20260507173628 56 113 0.0 3.5 0.00 0.00 0.00 88 1024.0
20260507173128 57 113 0.0 1.7 0.00 0.00 0.00 88 1024.0
20260507172629 57 113 0.0 0.0 0.00 0.00 0.00 87 1024.0
20260507172129 57 113 0.9 0.0 0.00 0.00 0.00 86 1024.0
20260507171628 57 293 0.9 0.0 0.00 0.00 0.00 86 1024.0
20260507171128 57 158 1.7 3.5 0.00 0.00 0.00 85 1024.0
20260507170629 57 158 0.0 0.0 0.00 0.00 0.00 84 1024.0
20260507170128 58 158 0.9 1.7 0.00 0.00 0.00 83 1024.0
20260507165629 58 158 0.0 1.7 0.00 0.00 0.00 82 1024.0
20260507165129 59 158 0.9 0.0 0.00 0.00 0.00 81 1024.0
20260507164628 59 158 0.9 0.0 0.00 0.00 0.00 80 1024.0
20260507164129 60 158 0.0 1.7 0.00 0.00 0.00 78 1024.0
20260507163629 61 158 0.0 0.0 0.00 0.00 0.00 76 1023.6
20260507163128 62 158 0.0 0.0 0.00 0.00 0.00 74 1023.6
20260507162629 64 158 0.0 0.0 0.00 0.00 0.00 71 1023.6
20260507162129 65 158 1.7 1.7 0.00 0.00 0.00 69 1023.2
20260507161629 65 158 0.0 0.0 0.00 0.00 0.00 70 1023.2
20260507161129 64 158 0.9 1.7 0.00 0.00 0.00 72 1023.2
20260507160628 63 158 0.9 0.0 0.00 0.00 0.00 75 1023.6
20260507160129 62 180 0.9 1.7 0.00 0.00 0.00 76 1023.6
20260507155629 63 180 0.9 1.7 0.00 0.00 0.00 75 1023.6
20260507155129 64 180 0.0 0.0 0.00 0.00 0.00 72 1023.6
20260507154629 66 180 0.0 0.0 0.00 0.00 0.00 70 1023.2
20260507154129 67 180 1.7 1.7 0.00 0.00 0.00 69 1023.2
20260507153629 66 180 1.7 1.7 0.00 0.00 0.00 71 1023.2
20260507153129 65 135 2.6 6.1 0.00 0.00 0.00 71 1023.2
20260507152129 63 135 1.7 3.5 0.00 0.00 0.00 74 1023.6
20260507151628 63 248 1.7 1.7 0.00 0.00 0.00 74 1023.6
20260507151128 65 158 1.7 1.7 0.00 0.00 0.00 71 1023.2
20260507150629 65 158 0.9 1.7 0.00 0.00 0.00 73 1023.2
20260507150129 63 158 0.0 0.0 0.00 0.00 0.00 78 1023.6
20260507145629 61 158 1.7 3.5 0.00 0.00 0.00 80 1023.6
20260507145128 60 158 0.9 1.7 0.00 0.00 0.00 80 1023.6
20260507144544 60 158 1.7 1.7 0.00 0.06 0.00 79 1023.6
20260507144043 61 113 1.7 1.7 0.00 0.06 0.00 77 1023.6
20260507143544 62 113 1.7 1.7 0.00 0.06 0.00 75 1023.6
20260507143043 64 23 1.7 1.7 0.00 0.06 0.00 72 1023.6
20260507142544 64 68 1.7 1.7 0.00 0.06 0.00 73 1023.2
20260507142044 63 203 0.0 0.0 0.00 0.06 0.00 77 1023.6
20260507141544 62 203 0.9 0.0 0.00 0.06 0.00 75 1023.6
20260507141043 63 203 1.7 3.5 0.00 0.06 0.00 73 1023.6
20260507140543 65 225 0.9 1.7 0.00 0.06 0.00 70 1023.2
20260507140043 66 225 1.7 1.7 0.00 0.06 0.00 70 1023.2
20260507135544 67 203 2.6 3.5 0.00 0.06 0.00 68 1023.2
20260507135049 67 113 0.9 3.5 0.00 0.06 0.00 69 1023.2
20260507134544 68 158 2.6 3.5 0.00 0.06 0.00 67 1023.2
20260507134044 68 158 1.7 3.5 0.00 0.06 0.00 69 1022.7
20260507133543 66 158 0.9 1.7 0.00 0.06 0.00 71 1023.2
20260507133043 66 180 1.7 3.5 0.00 0.06 0.00 73 1023.2
20260507132544 65 158 3.5 3.5 0.00 0.06 0.00 76 1023.2
20260507132043 63 158 2.6 1.7 0.00 0.06 0.00 79 1023.6
20260507131545 62 158 1.7 1.7 0.00 0.06 0.00 82 1023.6
20260507131043 62 158 1.7 1.7 0.00 0.06 0.00 80 1023.6
20260507130543 62 158 1.7 3.5 0.00 0.06 0.00 80 1023.6
20260507130044 62 180 1.7 1.7 0.00 0.06 0.00 81 1023.6
20260507125544 61 180 1.7 1.7 0.00 0.06 0.00 83 1023.6
20260507125043 60 180 1.7 1.7 0.00 0.06 0.00 84 1024.0
20260507124543 59 180 0.0 0.0 0.00 0.06 0.00 85 1024.0
20260507124043 58 180 0.0 0.0 0.00 0.06 0.00 86 1024.0
20260507123543 58 180 0.9 1.7 0.00 0.06 0.00 86 1024.0
20260507123044 59 180 0.9 0.0 0.00 0.06 0.00 85 1024.0
20260507122543 59 180 0.9 1.7 0.00 0.06 0.00 85 1024.0
20260507122044 59 180 0.0 0.0 0.00 0.06 0.00 85 1024.0
20260507121544 59 180 0.0 0.0 0.00 0.06 0.00 85 1024.0
20260507121044 59 180 0.0 0.0 0.00 0.06 0.00 87 1024.0
20260507120544 59 180 0.0 0.0 0.00 0.06 0.00 88 1024.0
20260507120044 58 180 0.0 0.0 0.00 0.06 0.00 88 1024.0
20260507115544 58 180 0.0 0.0 0.02 0.06 0.00 87 1024.0
20260507115044 58 180 0.0 0.0 0.02 0.06 0.00 87 1024.0
20260507114544 58 180 0.0 0.0 0.02 0.06 0.00 87 1024.0
20260507114043 58 180 0.0 0.0 0.00 0.05 0.00 86 1024.0
20260507113543 58 180 1.7 1.7 0.00 0.05 0.00 86 1024.0
20260507113043 58 180 1.7 1.7 0.00 0.05 0.00 85 1024.0
20260507112544 58 180 0.9 1.7 0.00 0.05 0.00 86 1024.0
20260507112044 58 180 0.9 0.0 0.00 0.05 0.00 87 1024.0
20260507111543 58 180 0.0 0.0 0.00 0.05 0.00 86 1024.0
20260507111044 58 180 0.0 0.0 0.00 0.05 0.00 86 1024.0
20260507110544 58 180 1.7 1.7 0.00 0.05 0.00 85 1024.0
20260507110044 59 180 1.7 1.7 0.00 0.05 0.00 85 1024.0
20260507105544 59 180 0.0 1.7 0.00 0.05 0.00 83 1024.0
20260507105044 60 180 0.9 1.7 0.00 0.05 0.00 81 1024.0
20260507104544 60 180 0.0 0.0 0.00 0.05 0.00 81 1023.6
20260507104043 60 180 0.0 0.0 0.00 0.05 0.00 82 1023.6
20260507103544 60 180 0.0 0.0 0.00 0.05 0.00 82 1023.6
20260507103043 60 180 0.0 0.0 0.00 0.05 0.00 84 1024.0
20260507102543 60 180 0.0 0.0 0.00 0.05 0.00 82 1024.0
20260507102043 60 180 0.9 1.7 0.00 0.05 0.00 82 1023.6
20260507101544 61 180 0.0 0.0 0.00 0.05 0.00 82 1023.6
20260507101043 61 180 0.0 0.0 0.00 0.05 0.00 82 1023.6
20260507100543 61 180 0.0 0.0 0.00 0.05 0.00 86 1023.6
20260507100043 58 180 0.0 0.0 0.00 0.05 0.00 89 1024.0
20260507095544 57 180 0.0 0.0 0.03 0.03 0.00 89 1024.0
20260507095043 57 180 0.0 0.0 0.03 0.03 0.00 90 1024.0
20260507094544 56 180 0.0 0.0 0.03 0.03 0.00 90 1024.0
20260507094044 56 180 0.9 1.7 0.03 0.03 0.00 91 1024.5
20260507093543 55 180 0.9 0.0 0.03 0.03 0.00 90 1024.5
20260507093044 55 180 0.0 0.0 0.03 0.03 0.00 90 1024.5
20260507092543 55 180 0.0 0.0 0.02 0.02 0.00 90 1024.5
20260507092044 55 180 0.9 0.0 0.02 0.02 0.00 90 1024.5
20260507091543 55 180 0.0 0.0 0.02 0.02 0.00 89 1024.5
20260507091043 55 180 0.0 0.0 0.02 0.02 0.00 89 1024.5
20260507090544 55 180 0.9 0.0 0.02 0.02 0.00 88 1024.5
20260507090044 55 180 0.9 0.0 0.00 0.00 0.00 87 1024.5
20260507085543 55 180 0.9 0.0 0.00 0.00 0.00 86 1024.5
20260507085044 56 180 0.9 1.7 0.00 0.00 0.00 86 1024.5
20260507084543 56 180 0.0 0.0 0.00 0.00 0.00 83 1024.5
20260507084044 56 180 0.0 0.0 0.00 0.00 0.00 81 1024.5
20260507083544 56 180 1.7 1.7 0.00 0.00 0.00 77 1024.5
20260507083044 57 180 1.7 1.7 0.00 0.00 0.00 77 1024.0
20260507082544 57 180 0.9 1.7 0.00 0.00 0.00 76 1024.0
20260507082043 57 180 0.9 1.7 0.00 0.00 0.00 75 1024.0
20260507081544 58 180 0.9 1.7 0.00 0.00 0.00 75 1024.0
20260507081043 58 180 1.7 1.7 0.00 0.00 0.00 75 1024.0
20260507080543 58 180 0.0 0.0 0.00 0.00 0.00 74 1024.0
20260507080043 59 180 0.9 0.0 0.00 0.00 0.00 72 1024.0
20260507075544 59 135 0.0 0.0 0.00 0.00 0.00 70 1024.0
20260507075043 60 135 0.9 1.7 0.00 0.00 0.00 68 1024.0
20260507074544 61 135 1.7 1.7 0.00 0.00 0.00 68 1024.0
20260507074044 61 135 0.0 0.0 0.00 0.00 0.00 68 1023.6
20260507073543 61 113 0.0 0.0 0.00 0.00 0.00 67 1023.6
20260507073043 61 113 1.7 1.7 0.00 0.00 0.00 65 1023.6
20260507072544 62 113 0.0 0.0 0.00 0.00 0.00 65 1023.6
20260507072044 65 113 1.7 1.7 0.00 0.00 0.00 61 1023.2
20260507071543 66 68 1.7 1.7 0.00 0.00 0.00 60 1023.2
20260507071043 67 135 2.6 3.5 0.00 0.00 0.00 59 1023.2
20260507070704 66 180 1.7 3.5 0.00 0.00 0.00 59 1023.2
20260507070205 65 180 1.7 1.7 0.00 0.00 0.00 62 1023.2
20260507065705 65 135 1.7 1.7 0.00 0.00 0.00 63 1023.2
20260507065205 64 135 1.7 1.7 0.00 0.00 0.00 64 1023.6
20260507064706 64 180 1.7 1.7 0.00 0.00 0.00 65 1023.6
20260507064204 63 180 1.7 3.5 0.00 0.00 0.00 67 1023.6
20260507063704 63 113 2.6 1.7 0.00 0.00 0.00 67 1023.6
20260507063205 62 113 2.6 3.5 0.00 0.00 0.00 68 1023.6
20260507062705 61 158 2.6 6.1 0.00 0.00 0.00 68 1023.6
20260507062205 61 113 1.7 3.5 0.00 0.00 0.00 69 1023.6
20260507061705 61 135 2.6 1.7 0.00 0.00 0.00 69 1023.6
20260507061205 61 180 1.7 1.7 0.00 0.00 0.00 69 1023.6
20260507060704 61 158 1.7 3.5 0.00 0.00 0.00 70 1023.6
20260507060204 60 180 1.7 1.7 0.00 0.00 0.00 71 1024.0
20260507055705 60 135 1.7 3.5 0.00 0.00 0.00 73 1024.0
20260507055205 59 158 1.7 1.7 0.00 0.00 0.00 77 1024.0
20260507054704 58 158 1.7 1.7 0.00 0.00 0.00 80 1024.0
20260507054204 55 158 0.0 1.7 0.00 0.00 0.00 85 1024.5
20260507053704 54 158 0.0 0.0 0.00 0.00 0.00 86 1024.5
20260507053204 54 158 0.0 0.0 0.00 0.00 0.00 87 1024.5
20260507052705 53 158 0.0 0.0 0.00 0.00 0.00 88 1024.5
20260507052205 53 158 0.0 0.0 0.00 0.00 0.00 88 1024.9
20260507051705 53 158 0.0 0.0 0.00 0.00 0.00 88 1024.9
20260507051205 52 158 0.0 0.0 0.00 0.00 0.00 88 1024.9
20260507050705 52 158 0.0 0.0 0.00 0.00 0.00 88 1024.9
20260507050204 52 158 0.0 0.0 0.00 0.00 0.00 88 1024.9
20260507045705 52 158 0.0 0.0 0.00 0.00 0.00 89 1024.9
20260507045205 52 158 0.0 0.0 0.00 0.00 0.00 89 1024.9
20260507044705 52 158 0.9 0.0 0.00 0.00 0.00 89 1024.9
20260507044204 52 158 0.0 0.0 0.00 0.00 0.00 89 1024.9
20260507043704 52 158 0.9 0.0 0.00 0.00 0.00 89 1024.9
20260507043205 51 158 1.7 1.7 0.00 0.00 0.00 89 1024.9
20260507042705 51 158 0.9 0.0 0.00 0.00 0.00 89 1024.9
20260507042205 51 158 1.7 1.7 0.00 0.00 0.00 90 1024.9
20260507041705 51 158 1.7 1.7 0.00 0.00 0.00 89 1024.9
20260507041205 51 158 0.9 0.0 0.00 0.00 0.00 89 1024.9
20260507040704 51 158 0.9 1.7 0.00 0.00 0.00 89 1024.9
20260507040204 51 158 0.0 0.0 0.00 0.00 0.00 89 1024.9
20260507035706 51 158 0.0 0.0 0.00 0.00 0.00 89 1024.9
20260507035205 51 158 1.7 1.7 0.00 0.00 0.00 89 1024.9
20260507034705 51 158 1.7 3.5 0.00 0.00 0.00 89 1024.9
20260507034204 51 158 0.9 1.7 0.00 0.00 0.00 89 1024.9
20260507033704 51 158 0.0 0.0 0.00 0.00 0.00 89 1024.9
20260507033204 51 158 0.0 0.0 0.00 0.00 0.00 89 1024.9
20260507032705 51 158 0.0 0.0 0.00 0.00 0.00 89 1024.9
20260507032204 51 158 0.9 0.0 0.00 0.00 0.00 89 1024.9
20260507031704 51 158 1.7 1.7 0.00 0.00 0.00 89 1024.9
20260507031205 52 158 0.0 0.0 0.00 0.00 0.00 89 1024.9
20260507030704 52 158 0.9 1.7 0.00 0.00 0.00 89 1024.9
20260507030204 52 158 0.9 1.7 0.00 0.00 0.00 89 1024.9
20260507025705 52 158 0.0 1.7 0.00 0.00 0.00 88 1024.9
20260507025204 52 158 0.0 0.0 0.00 0.00 0.00 88 1024.9
20260507024704 52 158 0.0 0.0 0.00 0.00 0.00 88 1024.9
20260507024204 52 158 1.7 1.7 0.00 0.00 0.00 88 1024.9
20260507023704 52 158 0.0 0.0 0.00 0.00 0.00 88 1024.9
20260507023204 52 158 0.9 0.0 0.00 0.00 0.00 88 1024.9
20260507022705 52 158 0.9 1.7 0.00 0.00 0.00 88 1024.9
20260507022204 52 158 0.0 1.7 0.00 0.00 0.00 88 1024.9
20260507021704 52 158 0.0 0.0 0.00 0.00 0.00 88 1024.9
20260507021204 52 158 0.9 0.0 0.00 0.00 0.00 87 1024.9
20260507020704 52 158 0.0 0.0 0.00 0.00 0.00 87 1024.9
20260507020204 52 158 0.0 0.0 0.00 0.00 0.00 87 1024.9
20260507015704 52 158 0.9 0.0 0.00 0.00 0.00 87 1024.9
20260507015204 52 158 0.0 0.0 0.00 0.00 0.00 86 1024.9
20260507014704 52 158 0.9 1.7 0.00 0.00 0.00 85 1024.9
20260507014204 53 158 0.9 0.0 0.00 0.00 0.00 85 1024.9
20260507013705 53 158 0.9 1.7 0.00 0.00 0.00 84 1024.5
20260507013204 53 158 0.0 0.0 0.00 0.00 0.00 84 1024.5
20260507012705 54 158 0.0 0.0 0.00 0.00 0.00 83 1024.5
20260507012205 54 158 0.0 0.0 0.00 0.00 0.00 82 1024.5
20260507011704 54 158 0.0 0.0 0.00 0.00 0.00 82 1024.5
20260507011204 55 158 0.9 0.0 0.00 0.00 0.00 82 1024.5
20260507010704 55 158 0.0 0.0 0.00 0.00 0.00 81 1024.5
20260507010205 55 158 0.0 0.0 0.00 0.00 0.00 81 1024.5
20260507005704 55 158 0.0 0.0 0.00 0.00 0.00 81 1024.5
20260507005204 55 158 1.7 1.7 0.00 0.00 0.00 81 1024.5
20260507004705 55 158 1.7 1.7 0.00 0.00 0.00 81 1024.5
20260507004205 55 158 0.9 0.0 0.00 0.00 0.00 82 1024.5
20260507003705 55 158 0.9 0.0 0.00 0.00 0.00 81 1024.5
20260507003205 55 158 0.0 0.0 0.00 0.00 0.00 81 1024.5
20260507002704 55 113 0.9 0.0 0.00 0.00 0.00 81 1024.5
20260507002204 55 180 0.0 0.0 0.00 0.00 0.00 81 1024.5
20260507001704 55 180 1.7 1.7 0.00 0.00 0.00 81 1024.5
20260507001205 55 158 1.7 1.7 0.00 0.00 0.00 81 1024.5
20260507000704 55 158 0.9 1.7 0.00 0.00 0.00 80 1024.5
20260507000205 55 135 0.9 1.7 0.00 0.00 0.00 81 1024.5
20260506235704 55 135 0.9 1.7 0.00 0.00 0.00 81 1024.5
20260506235204 55 135 0.9 0.0 0.00 0.00 0.00 81 1024.5
20260506234704 55 135 0.9 1.7 0.00 0.00 0.00 81 1024.5
20260506234204 55 135 1.7 1.7 0.00 0.00 0.00 81 1024.5
20260506233704 55 158 0.0 0.0 0.00 0.00 0.00 81 1024.5
20260506233204 55 158 0.0 0.0 0.00 0.00 0.00 81 1024.5
20260506232705 55 158 1.7 1.7 0.00 0.00 0.00 80 1024.5
20260506232204 55 158 0.9 0.0 0.00 0.00 0.00 80 1024.5
20260506231704 55 158 1.7 1.7 0.00 0.00 0.00 81 1024.5
20260506231204 55 158 1.7 3.5 0.00 0.00 0.00 81 1024.5
20260506230704 55 158 1.7 1.7 0.00 0.00 0.00 81 1024.5
20260506230205 55 90 1.7 1.7 0.00 0.00 0.00 81 1024.5
20260506225704 55 113 0.9 0.0 0.00 0.00 0.00 81 1024.5
20260506225204 55 113 0.9 0.0 0.00 0.00 0.00 81 1024.5